Wind_Speed
7 6 7 9 7 12 14 8 7 12 19 16 13 12 14 9 8 9 7 9 12 5 7 10 9 9 5 5 7 8 6 6 4 4 7 9 9 6 11 15 19 9 12 17
6 10 9 10 11 11 7 6 6 4 12 17 16 13 11 6 8 11 10 13 11 11 3 3 7 10 8 5 6 9 7 7 6 5 6 7 8 7 8 8 18 14 12 15
7 10 11 10 13 12 6 4 12 9 5 14 16 15 12 5 8 16 18 12 15 13 11 1 4 12 14 10 9 11 10 11 10 8 9 10 11 7 7 10 16 14 12 10
8 12 11 11 9 12 7 7 10 10 12 11 10 5 7 8 5 12 15 7 7 12 13 5 3 7 12 13 10 10 11 13 11 10 10 14 11 9 10 10 11 8 7 8
9 9 9 7 6 9 8 12 13 11 12 9 2 9 9 18 5 7 15 12 12 12 15 15 3 6 8 12 11 8 10 13 13 12 12 14 13 11 12 12 11 10 9 10
11 12 12 10 8 6 11 13 14 13 14 10 10 8 8 15 12 10 13 9 9 11 17 14 6 6 5 11 9 7 9 12 13 12 14 15 14 13 13 13 12 13 12 10
9 12 18 14 11 4 12 16 16 15 15 11 14 5 8 9 11 12 15 14 12 11 5 11 6 1 4 11 8 8 7 11 10 11 13 14 15 16 14 14 14 14 12 9
8 9 14 16 13 7 11 13 13 15 16 18 18 12 9 15 18 15 20 21 16 13 11 4 1 6 5 9 11 11 8 11 11 10 10 12 14 16 16 15 14 15 14 11
10 8 17 17 17 11 8 11 12 12 12 22 12 6 7 12 17 23 23 24 19 15 16 12 10 6 9 13 13 11 15 16 16 13 12 12 13 15 15 16 15 13 12 12
11 13 15 15 18 14 11 5 9 14 16 17 13 13 10 14 18 19 25 27 23 15 15 11 5 6 10 11 13 9 11 15 17 16 16 12 17 16 16 15 17 16 13 13
22 20 13 21 17 14 14 16 16 18 22 23 18 17 8 10 16 22 23 15 16 13 12 10 6 8 8 10 11 9 12 13 17 17 15 11 15 16 18 17 17 17 17 17
32 30 29 22 22 22 19 25 25 26 25 30 23 16 21 22 17 15 26 21 16 15 13 15 14 8 8 10 12 12 12 17 18 17 17 15 13 16 18 19 16 17 16 17
33 38 38 35 27 24 22 31 33 35 34 38 35 25 21 29 25 18 19 25 26 20 21 19 19 10 10 9 11 14 14 18 17 16 19 19 16 17 18 22 20 18 16 17
46 42 43 45 42 37 37 34 36 38 44 47 47 34 26 24 24 27 30 25 14 21 19 19 20 20 13 11 11 13 18 19 20 19 20 22 19 16 17 21 19 19 16 15
48 54 53 47 46 44 43 44 39 44 45 49 46 33 34 35 33 38 34 27 25 27 25 23 24 26 23 13 14 16 18 17 22 19 23 24 19 17 13 26 21 20 18 17
42 47 50 51 48 46 43 39 45 47 47 53 55 43 32 48 45 45 43 43 45 22 16 15 24 18 22 15 13 15 17 18 23 25 23 25 25 20 20 21 26 21 21 20
42 44 48 51 48 50 47 43 42 44 46 49 58 59 38 39 43 51 47 43 36 28 29 6 14 20 17 19 19 13 17 20 22 28 27 25 24 23 22 20 23 25 22 19
45 45 48 49 50 52 48 46 46 46 46 44 46 53 56 49 41 45 44 50 42 26 26 19 11 17 24 27 25 18 15 20 22 25 30 31 30 29 30 25 21 24 22 20
42 43 45 48 49 51 48 50 50 49 54 54 50 49 53 56 49 46 46 47 42 36 31 23 15 20 20 20 26 26 17 14 20 23 28 33 35 31 29 27 25 25 21 21
35 38 37 38 41 42 43 45 47 46 49 55 54 55 54 54 53 49 53 47 41 43 49 42 21 15 16 22 21 22 21 18 16 19 23 27 29 28 26 27 26 24 24 21
22 26 33 36 37 37 37 37 38 36 39 45 47 47 51 54 53 53 48 46 38 34 38 29 25 20 16 13 22 24 25 24 20 19 21 25 28 28 28 26 25 24 23 21
28 28 31 32 34 38 37 39 41 37 36 35 39 46 48 49 52 54 52 45 41 40 42 39 33 30 26 24 23 25 28 31 27 22 24 23 22 25 25 26 25 24 23 22
28 30 27 31 28 30 30 33 33 32 34 41 37 34 40 48 45 42 47 51 45 43 45 41 36 37 39 32 30 26 27 34 31 26 27 25 22 21 21 23 23 23 24 23
22 29 31 29 26 26 26 28 30 35 38 35 42 40 37 40 43 53 50 41 48 47 44 49 51 50 44 39 36 35 40 42 37 32 27 23 22 19 20 21 22 23 22 23
22 23 27 31 32 30 30 32 35 35 33 35 40 44 44 43 46 45 48 50 51 46 54 49 45 47 48 43 46 39 40 46 41 36 29 24 22 20 20 21 21 20 21 22
23 22 24 24 29 34 31 36 42 45 42 41 36 37 41 44 45 52 53 47 46 55 57 52 62 53 52 59 56 50 47 51 47 44 36 27 22 19 18 20 21 22 24 24
Wind_Direction
288 275 256 267 273 281 281 300 2 340 319 327 347 4 350 36 28 333 324 337 314 287 247 247 255 238 227 238 230 215 214 203 189 167 183 203 216 208 195 210 212 216 216 216
256 251 257 253 255 259 272 321 273 345 305 321 336 357 328 77 56 15 309 303 297 307 284 341 248 236 228 216 234 229 219 207 221 182 163 181 173 173 194 209 221 229 217 212
258 256 252 250 267 263 257 273 276 308 241 299 314 323 313 5 40 39 22 341 330 317 283 119 200 237 248 220 219 220 214 209 224 204 174 168 162 171 179 197 204 213 218 217
251 265 260 261 253 256 263 287 277 299 305 299 289 256 269 306 13 48 23 2 352 312 299 290 267 249 240 209 207 214 198 205 217 236 211 194 199 188 173 173 181 210 234 221
255 259 272 280 287 290 299 285 281 286 288 304 241 281 260 333 352 54 29 18 335 295 295 277 307 292 222 210 195 211 211 211 219 236 222 204 200 197 191 187 193 210 209 210
261 263 245 235 243 294 290 282 286 281 280 256 227 288 17 6 334 348 14 29 358 289 275 273 275 316 247 204 201 191 235 226 224 231 224 202 200 204 198 189 187 185 188 197
290 296 289 263 242 303 326 301 286 278 269 235 240 242 13 320 317 335 333 7 10 13 314 269 253 300 284 216 216 211 227 223 223 225 227 214 206 207 206 192 184 181 194 193
271 241 250 270 289 261 310 302 301 294 252 241 247 294 335 329 319 321 322 336 345 350 7 352 291 168 179 240 248 246 226 232 216 228 228 227 216 215 209 204 200 187 199 195
259 267 245 263 259 257 272 309 297 287 266 258 272 286 297 311 311 308 310 321 324 334 343 336 343 225 190 223 239 248 244 237 230 223 220 227 225 218 217 209 216 208 203 214
258 254 233 256 266 274 282 289 320 332 303 275 248 220 304 328 317 310 310 311 310 324 323 315 327 262 206 240 251 240 235 235 229 221 221 240 233 229 220 214 215 224 218 223
260 264 179 242 234 257 268 280 286 294 290 296 269 243 252 267 302 292 307 289 336 318 321 268 271 248 213 226 252 245 226 233 220 222 216 222 226 235 230 222 218 216 221 224
261 270 267 244 250 237 244 254 255 260 268 272 269 252 260 259 269 287 292 290 286 314 310 304 280 226 212 221 249 252 231 230 226 220 216 221 223 230 239 229 221 215 217 220
270 269 274 270 262 240 229 246 254 262 266 269 264 252 251 257 258 263 258 265 272 297 309 298 299 260 202 209 233 254 247 231 229 226 228 223 225 236 238 235 215 203 211 220
277 271 269 272 274 267 247 241 248 254 261 262 265 261 240 242 250 236 239 256 270 273 284 292 307 294 216 207 222 241 256 251 243 234 231 227 227 237 243 214 205 206 209 223
261 267 272 269 272 273 272 265 253 256 260 267 269 268 241 236 243 250 256 245 250 261 278 279 286 289 258 214 234 237 243 252 234 242 226 229 226 231 239 223 215 214 219 233
257 261 264 267 267 263 262 262 260 251 255 265 266 265 255 237 232 238 238 254 263 254 276 294 306 264 259 235 230 240 243 246 231 228 232 240 231 228 237 235 225 233 244 242
262 263 262 263 265 268 264 258 254 252 253 258 257 263 251 260 250 239 245 250 251 244 262 248 253 291 285 299 267 259 253 244 231 224 226 226 232 240 245 247 247 247 243 237
265 261 260 262 262 262 265 264 259 255 256 254 254 252 255 250 253 253 256 246 245 252 259 254 262 291 298 287 281 252 269 248 235 226 223 229 239 245 250 246 245 238 239 239
278 272 268 266 263 265 263 259 258 253 253 254 251 248 248 254 252 256 261 260 255 261 256 274 292 299 268 277 273 265 257 254 246 241 241 244 245 243 243 246 239 234 230 232
278 279 276 273 270 266 262 260 258 258 254 254 252 250 250 250 250 252 251 256 254 256 261 274 263 229 256 236 241 257 252 244 238 238 236 235 240 241 234 233 233 229 226 227
273 274 272 275 275 274 272 265 259 254 255 255 254 250 250 251 251 249 249 255 259 249 257 258 237 237 230 249 248 237 253 247 231 224 231 232 233 232 235 227 223 224 226 225
283 272 264 265 269 272 277 271 268 264 261 265 265 248 242 247 251 249 251 253 249 251 254 262 257 246 245 254 248 238 243 248 240 229 237 233 229 231 230 229 227 226 225 223
286 281 281 274 276 275 274 272 278 269 279 261 267 254 250 246 244 251 253 249 248 246 243 246 248 247 248 245 237 226 251 241 240 234 232 231 229 227 224 223 223 220 217 218
279 273 277 281 288 293 292 282 273 272 274 266 255 259 259 258 262 257 253 245 246 244 241 244 245 245 247 245 235 237 252 233 236 238 229 226 228 233 234 230 225 224 222 224
285 290 290 294 295 294 291 287 284 278 268 264 259 255 254 252 256 255 253 250 247 241 242 242 242 246 247 251 246 241 233 224 228 233 224 223 226 228 231 237 239 234 234 237
296 294 296 293 291 290 283 271 273 278 272 263 252 251 250 245 247 251 250 251 250 246 242 240 242 245 245 246 247 234 226 220 220 222 221 226 231 236 241 238 240 243 242 239
Height
5906 5907 5907 5905 5906 5906 5905 5903 5902 5903 5905 5903 5901 5898 5899 5902 5900 5898 5897 5896 5899 5898 5899 5899 5898 5897 5896 5897 5899 5899 5901 5904 5906 5908 5908 5909 5909 5910 5910 5912 5913 5914 5917 5920
5906 5904 5904 5904 5904 5904 5903 5901 5903 5905 5903 5901 5899 5898 5899 5901 5899 5898 5895 5894 5895 5897 5896 5895 5896 5896 5895 5895 5897 5897 5897 5899 5903 5906 5907 5907 5908 5909 5909 5910 5911 5914 5915 5920
5903 5903 5902 5902 5903 5903 5902 5900 5903 5903 5902 5899 5898 5899 5898 5899 5897 5897 5896 5895 5893 5895 5897 5894 5895 5894 5892 5893 5895 5897 5896 5898 5901 5904 5906 5906 5906 5907 5907 5908 5909 5912 5913 5916
5901 5900 5901 5900 5900 5900 5900 5898 5900 5901 5900 5899 5898 5898 5897 5897 5896 5895 5895 5894 5893 5893 5895 5894 5892 5891 5889 5890 5892 5895 5895 5897 5898 5899 5902 5904 5905 5905 5905 5906 5907 5908 5909 5910
5899 5899 5897 5897 5897 5897 5898 5897 5898 5898 5897 5898 5897 5896 5899 5897 5895 5893 5894 5893 5892 5889 5890 5892 5892 5890 5887 5889 5889 5892 5893 5895 5896 5898 5898 5900 5902 5902 5901 5903 5904 5905 5907 5909
5895 5895 5893 5893 5893 5894 5895 5895 5895 5895 5894 5895 5895 5895 5894 5893 5893 5891 5893 5894 5891 5889 5887 5889 5888 5888 5886 5887 5888 5889 5892 5893 5894 5895 5896 5897 5898 5899 5900 5901 5904 5906 5908 5909
5893 5893 5892 5891 5890 5891 5891 5891 5890 5892 5891 5893 5892 5890 5888 5888 5887 5887 5888 5889 5890 5889 5885 5884 5884 5885 5884 5884 5886 5887 5889 5891 5892 5893 5895 5896 5897 5897 5899 5901 5902 5904 5907 5908
5890 5893 5891 5889 5889 5889 5889 5889 5888 5887 5887 5888 5887 5887 5886 5885 5885 5883 5883 5885 5886 5886 5883 5883 5881 5884 5882 5883 5885 5887 5887 5889 5889 5891 5892 5894 5895 5897 5898 5901 5903 5903 5904 5905
5885 5886 5886 5887 5886 5886 5887 5886 5884 5883 5884 5883 5885 5884 5882 5882 5882 5880 5880 5881 5882 5882 5879 5879 5877 5881 5881 5882 5882 5883 5885 5886 5886 5888 5889 5890 5892 5893 5896 5898 5901 5902 5902 5904
5880 5879 5881 5883 5882 5881 5881 5883 5882 5881 5880 5880 5881 5879 5880 5880 5879 5878 5877 5877 5877 5877 5876 5875 5875 5877 5880 5879 5878 5879 5881 5883 5884 5884 5885 5887 5888 5890 5892 5895 5897 5899 5899 5900
5871 5873 5879 5877 5877 5878 5878 5877 5878 5877 5877 5874 5874 5879 5878 5878 5878 5876 5875 5875 5876 5875 5875 5873 5874 5874 5876 5876 5875 5875 5878 5880 5881 5882 5883 5884 5885 5887 5890 5892 5894 5897 5898 5899
5866 5865 5866 5873 5873 5874 5874 5870 5870 5869 5871 5868 5868 5871 5872 5873 5874 5872 5871 5871 5871 5872 5872 5872 5872 5871 5873 5873 5874 5875 5875 5877 5877 5878 5880 5881 5882 5884 5886 5889 5891 5893 5895 5897
5866 5863 5862 5862 5868 5871 5867 5864 5863 5863 5862 5861 5862 5866 5864 5866 5868 5869 5866 5867 5866 5866 5867 5867 5868 5869 5868 5869 5872 5872 5874 5874 5875 5875 5876 5877 5878 5880 5882 5884 5888 5890 5891 5893
5855 5857 5856 5855 5857 5859 5859 5858 5857 5857 5854 5853 5854 5857 5862 5860 5860 5860 5856 5858 5858 5860 5862 5865 5865 5869 5866 5865 5866 5867 5868 5869 5871 5871 5872 5873 5875 5877 5878 5880 5884 5886 5887 5889
5846 5843 5841 5845 5845 5846 5849 5851 5852 5848 5847 5844 5846 5846 5850 5851 5850 5853 5852 5851 5852 5855 5855 5859 5859 5860 5862 5861 5861 5861 5861 5862 5865 5866 5867 5870 5872 5874 5876 5878 5881 5884 5885 5886
5834 5832 5830 5829 5831 5832 5835 5841 5842 5840 5837 5835 5832 5838 5834 5839 5838 5842 5842 5845 5850 5851 5849 5850 5853 5854 5857 5857 5855 5856 5856 5856 5858 5861 5863 5864 5868 5870 5872 5873 5877 5879 5880 5882
5822 5820 5817 5815 5819 5816 5820 5825 5826 5827 5824 5819 5821 5822 5828 5829 5827 5829 5835 5838 5844 5845 5846 5846 5850 5853 5854 5855 5855 5851 5849 5850 5851 5855 5857 5860 5862 5864 5866 5868 5870 5872 5874 5877
5806 5805 5801 5802 5801 5801 5807 5808 5808 5809 5807 5806 5807 5809 5811 5819 5821 5821 5824 5827 5836 5838 5843 5842 5841 5845 5846 5846 5846 5847 5848 5846 5847 5849 5851 5853 5855 5857 5859 5861 5864 5867 5869 5872
5790 5789 5788 5786 5788 5789 5791 5788 5791 5794 5790 5791 5795 5797 5800 5804 5813 5815 5815 5818 5826 5828 5831 5834 5831 5837 5838 5837 5838 5839 5844 5844 5844 5846 5849 5850 5849 5849 5850 5854 5856 5860 5862 5865
5780 5776 5776 5775 5773 5774 5775 5775 5775 5778 5776 5776 5781 5786 5790 5793 5799 5804 5809 5810 5816 5821 5821 5824 5822 5827 5829 5830 5832 5836 5839 5839 5839 5840 5843 5844 5845 5846 5844 5845 5848 5853 5856 5859
5771 5768 5764 5762 5761 5762 5762 5764 5766 5766 5766 5764 5768 5773 5777 5780 5785 5790 5796 5801 5807 5809 5815 5815 5816 5819 5823 5823 5827 5831 5835 5839 5836 5835 5838 5839 5840 5839 5842 5841 5842 5844 5849 5852
5759 5759 5756 5756 5754 5753 5751 5753 5755 5756 5753 5756 5759 5760 5763 5765 5770 5773 5779 5786 5793 5796 5802 5807 5808 5814 5817 5820 5822 5827 5831 5832 5833 5830 5834 5834 5834 5836 5836 5838 5839 5840 5841 5845
5749 5746 5746 5744 5745 5743 5742 5744 5742 5744 5746 5746 5748 5750 5753 5754 5760 5761 5766 5771 5778 5784 5789 5794 5798 5803 5807 5810 5815 5818 5824 5826 5827 5825 5826 5828 5829 5829 5830 5832 5834 5834 5835 5838
5742 5737 5734 5735 5736 5734 5733 5734 5735 5734 5733 5734 5736 5738 5740 5741 5743 5749 5752 5757 5766 5771 5775 5780 5783 5787 5794 5798 5803 5807 5812 5817 5819 5821 5821 5820 5823 5824 5826 5828 5829 5831 5832 5833
5736 5735 5733 5731 5729 5729 5727 5722 5719 5718 5718 5718 5720 5721 5723 5727 5731 5733 5736 5741 5748 5754 5760 5764 5768 5772 5778 5783 5788 5792 5797 5804 5811 5815 5816 5816 5817 5818 5820 5823 5825 5827 5829 5831
5731 5729 5727 5726 5721 5716 5717 5712 5707 5702 5703 5702 5703 5705 5705 5710 5715 5717 5723 5728 5733 5733 5738 5745 5752 5756 5762 5764 5769 5771 5783 5790 5801 5805 5807 5811 5813 5813 5815 5818 5820 5822 5825 5826